UAL23 KEWR-EIDW

Flight info

Callsign UAL23
Flight time N/A
Altitude 37000
Route MERIT DCT HFD DCT PUT DCT BOS DCT KANNI N343B JOOPY/M084F370 DCT 49N050W 50N040W 51N030W 52N020W DCT LIMRI DCT XETBO/N0474F370 DCT OSGAR OSGAR4L
Aircraft B77W/H-SDE1E2E3FGHIJ2J3J4J5M1RWXY/LB1D1

Departure

Time N/A
Airport Newark Liberty International Airport (KEWR)

Arrival

Time 2026-05-06 12:03
Airport Dublin Airport (EIDW)
Time Latitude Longitude Altitude Speed Heading
2026-05-06 11:19 52.20904 -12.85605 37077 ft 474 kts 71°
2026-05-06 11:19 52.22732 -12.75257 37069 ft 474 kts 71°
2026-05-06 11:20 52.24549 -12.64907 37065 ft 474 kts 71°
2026-05-06 11:20 52.26358 -12.54547 37066 ft 475 kts 71°
2026-05-06 11:21 52.28160 -12.44164 37079 ft 475 kts 71°
2026-05-06 11:21 52.29953 -12.33774 37065 ft 475 kts 72°
2026-05-06 11:22 52.31727 -12.23436 37063 ft 476 kts 72°
2026-05-06 11:22 52.33504 -12.13013 37062 ft 476 kts 72°
2026-05-06 11:23 52.35273 -12.02576 37060 ft 476 kts 72°
2026-05-06 11:23 52.37035 -11.92120 37061 ft 476 kts 72°
2026-05-06 11:24 52.38789 -11.81653 37060 ft 477 kts 72°
2026-05-06 11:24 52.40536 -11.71156 37058 ft 477 kts 72°
2026-05-06 11:25 52.42274 -11.60653 37057 ft 478 kts 72°
2026-05-06 11:25 52.44005 -11.50122 37073 ft 478 kts 72°
2026-05-06 11:26 52.45717 -11.39650 37056 ft 479 kts 73°
2026-05-06 11:26 52.47432 -11.29087 37058 ft 480 kts 72°
2026-05-06 11:27 52.49142 -11.18493 37054 ft 480 kts 72°
2026-05-06 11:27 52.50841 -11.07897 37055 ft 480 kts 73°
2026-05-06 11:28 52.52532 -10.97288 37064 ft 481 kts 73°
2026-05-06 11:28 52.54208 -10.86703 37057 ft 481 kts 73°
2026-05-06 11:29 52.55883 -10.76055 37056 ft 481 kts 73°
2026-05-06 11:29 52.57548 -10.65400 37058 ft 482 kts 73°
2026-05-06 11:30 52.59207 -10.54717 37059 ft 482 kts 73°
2026-05-06 11:30 52.60856 -10.44026 37060 ft 482 kts 73°
2026-05-06 11:31 52.62494 -10.33340 37057 ft 481 kts 73°
2026-05-06 11:31 52.64122 -10.22648 37057 ft 481 kts 73°
2026-05-06 11:32 52.65740 -10.11950 37057 ft 481 kts 73°
2026-05-06 11:32 52.67339 -10.01302 37059 ft 482 kts 74°
2026-05-06 11:33 52.68940 -9.90574 37056 ft 482 kts 74°
2026-05-06 11:33 52.70532 -9.79830 37052 ft 483 kts 74°
2026-05-06 11:34 52.72118 -9.69059 37051 ft 483 kts 74°
2026-05-06 11:34 52.73692 -9.58285 37057 ft 483 kts 74°
2026-05-06 11:35 52.75260 -9.47491 37053 ft 484 kts 75°
2026-05-06 11:35 52.76819 -9.36672 37051 ft 485 kts 75°
2026-05-06 11:36 52.78373 -9.25818 37044 ft 486 kts 75°
2026-05-06 11:36 52.79917 -9.14948 37051 ft 486 kts 75°
2026-05-06 11:37 52.81445 -9.04123 37033 ft 487 kts 75°
2026-05-06 11:37 52.82973 -8.93217 37041 ft 487 kts 75°
2026-05-06 11:38 52.84492 -8.82297 37034 ft 487 kts 75°
2026-05-06 11:38 52.86001 -8.71367 37026 ft 487 kts 75°
2026-05-06 11:39 52.87510 -8.60363 36352 ft 498 kts 75°
2026-05-06 11:39 52.88271 -8.54783 35742 ft 495 kts 75°
2026-05-06 11:39 52.89026 -8.49219 34913 ft 495 kts 75°
2026-05-06 11:39 52.89779 -8.43647 34111 ft 494 kts 75°
2026-05-06 11:40 52.90526 -8.38097 33289 ft 491 kts 75°
2026-05-06 11:40 52.91260 -8.32619 32697 ft 483 kts 75°
2026-05-06 11:40 52.91982 -8.27216 32137 ft 476 kts 75°
2026-05-06 11:40 52.92681 -8.21960 31588 ft 470 kts 75°
2026-05-06 11:41 52.93381 -8.16689 31053 ft 465 kts 76°
2026-05-06 11:41 52.94067 -8.11500 30533 ft 460 kts 76°
2026-05-06 11:41 52.94746 -8.06349 29995 ft 455 kts 76°
2026-05-06 11:41 52.95418 -8.01242 29391 ft 450 kts 76°
2026-05-06 11:42 52.96078 -7.96201 28857 ft 444 kts 76°
2026-05-06 11:42 52.96727 -7.91222 28334 ft 439 kts 76°
2026-05-06 11:42 52.97367 -7.86298 27818 ft 434 kts 76°
2026-05-06 11:42 52.97999 -7.81416 27300 ft 430 kts 76°
2026-05-06 11:43 52.98624 -7.76578 26787 ft 426 kts 76°
2026-05-06 11:43 52.99240 -7.71789 26282 ft 423 kts 76°
2026-05-06 11:43 52.99849 -7.67035 25785 ft 419 kts 76°
2026-05-06 11:44 53.01051 -7.57617 24816 ft 414 kts 77°
2026-05-06 11:44 53.01635 -7.53015 24350 ft 412 kts 77°
2026-05-06 11:44 53.02223 -7.48362 23863 ft 411 kts 77°
2026-05-06 11:44 53.02808 -7.43725 23342 ft 409 kts 77°
2026-05-06 11:45 53.03389 -7.39103 22794 ft 407 kts 77°
2026-05-06 11:45 53.03779 -7.35998 22460 ft 406 kts 77°
2026-05-06 11:45 53.04350 -7.31426 21980 ft 402 kts 77°
2026-05-06 11:45 53.04853 -7.26934 21509 ft 399 kts 83°
2026-05-06 11:46 53.04767 -7.22359 21055 ft 395 kts 97°
2026-05-06 11:46 53.04378 -7.17856 20591 ft 392 kts 98°
2026-05-06 11:46 53.03979 -7.13390 20122 ft 390 kts 98°
2026-05-06 11:46 53.03599 -7.08945 19668 ft 387 kts 98°
2026-05-06 11:47 53.03238 -7.04510 19213 ft 385 kts 97°
2026-05-06 11:47 53.02894 -7.00111 18762 ft 383 kts 97°
2026-05-06 11:47 53.02558 -6.95731 18305 ft 381 kts 97°
2026-05-06 11:47 53.02226 -6.91382 17786 ft 379 kts 97°
2026-05-06 11:48 53.01894 -6.87044 17308 ft 377 kts 97°
2026-05-06 11:48 53.01564 -6.82733 16853 ft 374 kts 97°
2026-05-06 11:48 53.01239 -6.78514 16398 ft 371 kts 97°
2026-05-06 11:48 53.00909 -6.74278 15943 ft 369 kts 97°
2026-05-06 11:49 53.00629 -6.70080 15483 ft 361 kts 91°
2026-05-06 11:49 53.01058 -6.66024 15060 ft 356 kts 68°
2026-05-06 11:49 53.02293 -6.62448 14622 ft 352 kts 49°
2026-05-06 11:49 53.03934 -6.59506 14204 ft 351 kts 44°
2026-05-06 11:50 53.05644 -6.56606 13771 ft 351 kts 43°
2026-05-06 11:50 53.07351 -6.53708 13276 ft 351 kts 44°
2026-05-06 11:50 53.09045 -6.50803 12820 ft 349 kts 44°
2026-05-06 11:50 53.10723 -6.47899 12404 ft 347 kts 44°
2026-05-06 11:51 53.12384 -6.45002 12002 ft 344 kts 44°
2026-05-06 11:51 53.14026 -6.42127 11597 ft 342 kts 45°
2026-05-06 11:51 53.15630 -6.39270 11426 ft 329 kts 49°
2026-05-06 11:51 53.16700 -6.36003 11257 ft 320 kts 73°
2026-05-06 11:52 53.16957 -6.32393 11126 ft 311 kts 92°
2026-05-06 11:52 53.16793 -6.28865 11028 ft 300 kts 95°
2026-05-06 11:52 53.16596 -6.25450 10869 ft 292 kts 95°
2026-05-06 11:52 53.16401 -6.22099 10586 ft 289 kts 95°
2026-05-06 11:53 53.16207 -6.18772 10268 ft 288 kts 95°
2026-05-06 11:53 53.16013 -6.15450 9957 ft 287 kts 95°
2026-05-06 11:53 53.15820 -6.12149 9663 ft 285 kts 95°
2026-05-06 11:53 53.15624 -6.08869 9369 ft 282 kts 95°
2026-05-06 11:54 53.15427 -6.05626 9071 ft 280 kts 96°
2026-05-06 11:54 53.15233 -6.02415 8764 ft 278 kts 96°
2026-05-06 11:54 53.15043 -5.99219 8457 ft 276 kts 96°
2026-05-06 11:54 53.14857 -5.96046 8160 ft 274 kts 96°
2026-05-06 11:55 53.14680 -5.92930 7866 ft 271 kts 95°
2026-05-06 11:55 53.14847 -5.89806 7409 ft 271 kts 70°
2026-05-06 11:55 53.15847 -5.87222 7064 ft 270 kts 41°
2026-05-06 11:55 53.17461 -5.85724 6784 ft 266 kts 13°
2026-05-06 11:56 53.19286 -5.85576 6425 ft 263 kts 353°
2026-05-06 11:56 53.21107 -5.86018 6015 ft 265 kts 349°
2026-05-06 11:56 53.22917 -5.86558 5731 ft 263 kts 349°
2026-05-06 11:56 53.24709 -5.87113 5450 ft 261 kts 349°
2026-05-06 11:57 53.26492 -5.87672 5135 ft 260 kts 349°
2026-05-06 11:57 53.28274 -5.88238 4792 ft 260 kts 349°
2026-05-06 11:57 53.30044 -5.88811 4507 ft 257 kts 348°
2026-05-06 11:57 53.31758 -5.89592 4256 ft 253 kts 342°
2026-05-06 11:58 53.33407 -5.90518 4071 ft 247 kts 341°
2026-05-06 11:58 53.34993 -5.91493 3904 ft 237 kts 335°
2026-05-06 11:58 53.36437 -5.92730 3740 ft 229 kts 331°
2026-05-06 11:58 53.37807 -5.93990 3587 ft 220 kts 331°
2026-05-06 11:59 53.39093 -5.95254 3471 ft 206 kts 320°
2026-05-06 11:59 53.39987 -5.96987 3299 ft 193 kts 294°
2026-05-06 11:59 53.40348 -5.99126 3193 ft 191 kts 281°
2026-05-06 11:59 53.40618 -6.01283 3083 ft 192 kts 281°
2026-05-06 12:00 53.40833 -6.03508 2815 ft 194 kts 276°
2026-05-06 12:00 53.40967 -6.05717 2557 ft 186 kts 275°
2026-05-06 12:00 53.41079 -6.07798 2283 ft 172 kts 275°
2026-05-06 12:00 53.41185 -6.09739 2062 ft 167 kts 275°
2026-05-06 12:01 53.41292 -6.11684 1852 ft 168 kts 276°
2026-05-06 12:01 53.41397 -6.13613 1634 ft 162 kts 276°
2026-05-06 12:01 53.41498 -6.15438 1395 ft 152 kts 276°
2026-05-06 12:01 53.41593 -6.17199 1190 ft 152 kts 276°
2026-05-06 12:02 53.41692 -6.18946 973 ft 149 kts 276°
2026-05-06 12:02 53.41787 -6.20690 781 ft 152 kts 276°
2026-05-06 12:02 53.41878 -6.22467 576 ft 154 kts 277°
2026-05-06 12:02 53.41979 -6.24238 366 ft 153 kts 276°
2026-05-06 12:03 53.42077 -6.26004 220 ft 146 kts 275°
2026-05-06 12:03 53.42157 -6.27448 220 ft 86 kts 276°
2026-05-06 12:03 53.42194 -6.28061 220 ft 30 kts 282°
2026-05-06 12:03 53.42275 -6.28288 225 ft 14 kts 318°
2026-05-06 12:04 53.42353 -6.28299 225 ft 12 kts 40°
2026-05-06 12:04 53.42367 -6.28163 216 ft 12 kts 95°
2026-05-06 12:04 53.42358 -6.28021 216 ft 13 kts 92°
2026-05-06 12:04 53.42350 -6.27805 223 ft 21 kts 94°
2026-05-06 12:05 53.42336 -6.27560 220 ft 21 kts 96°
2026-05-06 12:05 53.42322 -6.27315 219 ft 21 kts 94°
2026-05-06 12:05 53.42310 -6.27071 222 ft 21 kts 95°
2026-05-06 12:05 53.42297 -6.26826 216 ft 21 kts 95°
2026-05-06 12:06 53.42284 -6.26581 216 ft 21 kts 96°
2026-05-06 12:06 53.42269 -6.26336 216 ft 21 kts 95°
2026-05-06 12:06 53.42255 -6.26092 216 ft 21 kts 95°
2026-05-06 12:06 53.42242 -6.25847 216 ft 21 kts 95°
2026-05-06 12:07 53.42229 -6.25603 216 ft 21 kts 95°
2026-05-06 12:07 53.42216 -6.25358 218 ft 21 kts 95°
2026-05-06 12:07 53.42203 -6.25114 218 ft 21 kts 95°
2026-05-06 12:07 53.42190 -6.24869 218 ft 21 kts 96°
2026-05-06 12:08 53.42175 -6.24625 222 ft 21 kts 96°
2026-05-06 12:08 53.42161 -6.24386 216 ft 17 kts 95°
2026-05-06 12:08 53.42178 -6.24237 222 ft 13 kts 56°
2026-05-06 12:08 53.42246 -6.24142 221 ft 13 kts 27°
2026-05-06 12:09 53.42318 -6.24078 221 ft 8 kts 23°
2026-05-06 12:09 53.42365 -6.24105 222 ft 7 kts 326°
2026-05-06 12:09 53.42388 -6.24133 221 ft 3 kts 324°
2026-05-06 12:09 53.42392 -6.24138 221 ft 0 kts 324°